Date,TemperatureHighF,TemperatureAvgF,TemperatureLowF,DewpointHighF,DewpointAvgF,DewpointLowF,HumidityHigh,HumidityAvg,HumidityLow,PressureMaxIn,PressureMinIn,WindSpeedMaxMPH,WindSpeedAvgMPH,GustSpeedMaxMPH,PrecipitationSumIn
2013-1-1,34.0,33.3,33.0,33.0,32.1,32.0,95,95,94,0.00,40.00,4,1,6,0.00
2013-1-2,33.0,25.6,17.0,16.0,12.6,9.0,85,60,36,0.00,40.00,5,2,8,0.00
2013-1-3,36.0,31.7,26.0,24.0,22.0,20.0,92,69,54,0.00,40.00,6,2,11,0.00
2013-1-4,37.0,28.3,21.0,27.0,21.8,19.0,94,79,52,0.00,40.00,11,2,17,0.00
2013-1-5,44.0,30.3,18.0,33.0,23.3,16.0,93,78,46,0.00,40.00,6,1,12,0.00
2013-1-6,40.0,35.2,25.0,34.0,27.4,20.0,88,73,62,0.00,40.00,16,4,22,0.00
2013-1-7,43.0,30.5,18.0,27.0,22.0,17.0,94,74,43,0.00,40.00,4,1,9,0.00
2013-1-8,53.0,32.9,22.0,34.0,25.4,20.0,94,78,38,0.00,40.00,3,1,14,0.00
2013-1-9,57.0,44.7,35.0,48.0,38.5,31.0,94,80,53,0.00,40.00,6,1,12,0.00
2013-1-10,54.0,43.2,35.0,51.0,36.8,28.0,95,80,48,0.00,40.00,6,2,11,0.00
2013-1-11,63.0,56.8,44.0,49.0,46.1,42.0,93,69,55,0.00,40.00,4,2,12,0.00
2013-1-12,68.0,62.7,44.0,63.0,58.6,42.0,93,87,74,0.00,40.00,6,2,16,0.00
2013-1-13,69.0,42.4,27.0,61.0,39.1,20.0,93,88,74,0.00,40.00,12,6,24,0.00
2013-1-14,29.0,26.0,23.0,20.0,18.0,16.0,77,72,65,0.00,40.00,9,5,14,0.00
2013-1-15,33.0,32.2,31.0,23.0,20.8,19.0,67,62,58,0.00,40.00,7,4,13,0.00
2013-1-16,36.0,32.8,30.0,27.0,24.0,20.0,87,70,53,0.00,40.00,6,2,10,0.00
2013-1-17,48.0,35.9,30.0,30.0,26.9,19.0,92,72,47,0.00,40.00,14,4,24,0.00
2013-1-18,44.0,32.0,21.0,25.0,21.3,19.0,93,68,38,0.00,40.00,4,2,12,0.00
2013-1-19,56.0,46.3,36.0,29.0,25.5,22.0,64,45,32,0.00,40.00,10,6,27,0.00
2013-1-20,45.0,38.1,33.0,35.0,19.3,10.0,78,48,32,0.00,40.00,9,6,16,0.00
2013-1-21,27.0,24.1,17.0,17.0,8.6,1.0,71,53,37,0.00,40.00,18,9,27,0.00
2013-1-22,22.0,18.1,13.0,3.0,-0.4,-3.0,52,44,38,0.00,40.00,8,4,17,0.00
2013-1-23,38.0,24.4,14.0,19.0,11.0,3.0,81,59,38,0.00,40.00,6,1,12,0.00
2013-1-24,32.0,24.5,20.0,20.0,12.6,9.0,72,61,52,0.00,40.00,11,7,26,0.00
2013-6-18,65.0,65.0,65.0,63.0,63.0,63.0,94,94,94,0.00,40.00,2,1,4,0.00
2013-6-20,85.0,82.7,77.0,64.0,63.1,61.0,58,52,50,0.00,40.00,2,2,7,0.00
2013-6-27,90.0,84.0,75.0,74.0,72.0,68.0,95,69,47,0.00,40.00,7,3,18,0.00
2013-6-28,87.0,87.0,87.0,59.0,59.0,59.0,38,38,38,0.00,40.00,9,9,19,0.00
2013-6-29,83.0,78.6,73.0,62.0,62.0,62.0,68,57,48,0.00,40.00,6,5,19,0.00
2013-7-1,69.0,69.0,69.0,66.0,66.0,66.0,91,91,91,0.00,40.00,0,0,2,0.00
2013-7-2,71.0,71.0,71.0,67.0,67.0,67.0,88,88,88,0.00,40.00,2,2,6,0.00
2013-7-7,81.0,74.1,69.0,68.0,67.6,67.0,93,81,63,0.00,40.00,1,1,4,0.00
2013-7-8,71.0,71.0,71.0,68.0,68.0,68.0,93,93,93,0.00,40.00,1,1,2,0.00
2013-7-12,83.0,83.0,83.0,55.0,55.0,55.0,38,38,38,0.00,40.00,6,6,16,0.00
2013-7-15,88.0,85.4,75.0,73.0,69.8,69.0,93,62,54,0.00,40.00,1,0,6,0.00
2013-7-16,75.0,75.0,75.0,73.0,73.0,73.0,93,93,93,0.00,40.00,1,1,2,0.00
2013-8-5,85.0,85.0,85.0,58.0,58.0,58.0,40,40,40,0.00,40.00,1,1,4,0.00
2013-8-6,78.0,78.0,78.0,75.0,75.0,75.0,92,92,92,0.00,40.00,1,1,6,0.00
2013-8-7,85.0,85.0,85.0,71.0,71.0,71.0,63,63,63,0.00,40.00,7,7,11,0.00